Weather History for New Orleans, LA

Change the Weather History Date:

Saturday, April 6, 2013

  Actual Average Record
Temperature  
Mean Temperature 60 °F -  
Max Temperature 72 °F 74 °F 89 °F (1955)
Min Temperature 48 °F 52 °F 40 °F (1966)
Degree Days  
Heating Degree Days 5    
Growing Degree Days 10 (Base 50)    
Moisture  
Dew Point 51 °F    
Average Humidity 69    
Maximum Humidity 93    
Minimum Humidity 40    
Precipitation  
Precipitation 0.00 in - - ()
Sea Level Pressure  
Sea Level Pressure 30.12 in    
Wind  
Wind Speed 5 mph (SSE)    
Max Wind Speed 15 mph    
Max Gust Speed 18 mph    
Visibility 10 miles    
Events Fog    
Averages and records for this station are not official NWS values.
T = Trace of Precipitation, MM = Missing Value Source: NWS Daily Summary

Daily Weather History Graph

Daily Weather History Graph

Search for Another Location

Airport:

Trip Planner

Search our weather history database for the weather conditions in past years. The results will help you decide how hot, cold, wet, or windy it might be!

Date:

Astronomy

Apr. 06, 2013 Rise Set
Actual Time 6:44 AM CDT 7:22 PM CDT
Civil Twilight 6:19 AM CDT 7:47 PM CDT
Nautical Twilight 5:51 AM CDT 8:15 PM CDT
Astronomical Twilight 5:22 AM CDT 8:44 PM CDT
Moon 4:12 AM CDT (4/6) 4:05 PM CDT (4/6)
Length of Visible Light 13h 27m
Length of Day
12h 38m
Waning Crescent, 15% of the Moon is Illuminated
Apr 6
Waning Crescent
Apr 10
New
Apr 18
First Quarter
Apr 25
Full
May 2
Last Quarter

Hourly Weather History & Observations

Time (CDT) Temp. Dew Point Humidity Pressure Visibility Wind Dir Wind Speed Gust Speed Precip Events Conditions
12:53 AM 57.0 °F 50.0 °F 77% 30.13 in 10.0 mi NE 3.5 mph - N/A   Partly Cloudy
1:53 AM 55.0 °F 50.0 °F 83% 30.13 in 10.0 mi Calm Calm - N/A   Partly Cloudy
2:53 AM 53.1 °F 48.9 °F 86% 30.12 in 10.0 mi Calm Calm - N/A   Clear
3:53 AM 55.0 °F 50.0 °F 83% 30.11 in 10.0 mi Calm Calm - N/A   Partly Cloudy
4:53 AM 52.0 °F 48.0 °F 86% 30.12 in 10.0 mi Calm Calm - N/A   Partly Cloudy
5:53 AM 48.9 °F 46.9 °F 93% 30.13 in 10.0 mi Calm Calm - N/A Fog Shallow Fog
6:53 AM 48.9 °F 46.9 °F 93% 30.14 in 10.0 mi Calm Calm - N/A Fog Shallow Fog
7:53 AM 57.0 °F 52.0 °F 83% 30.15 in 10.0 mi ESE 4.6 mph - N/A   Mostly Cloudy
8:53 AM 63.0 °F 53.1 °F 70% 30.15 in 10.0 mi SE 9.2 mph - N/A   Mostly Cloudy
9:53 AM 66.0 °F 50.0 °F 56% 30.15 in 10.0 mi SSE 11.5 mph - N/A   Mostly Cloudy
10:53 AM 68.0 °F 48.9 °F 50% 30.17 in 10.0 mi SSE 12.7 mph - N/A   Mostly Cloudy
11:53 AM 70.0 °F 52.0 °F 53% 30.17 in 10.0 mi South 8.1 mph - N/A   Mostly Cloudy
12:53 PM 71.1 °F 52.0 °F 51% 30.17 in 10.0 mi South 12.7 mph 18.4 mph N/A   Mostly Cloudy
1:53 PM 71.1 °F 52.0 °F 51% 30.15 in 10.0 mi SSE 12.7 mph - N/A   Mostly Cloudy
2:53 PM 71.1 °F 51.1 °F 49% 30.12 in 10.0 mi South 15.0 mph - N/A   Mostly Cloudy
3:53 PM 70.0 °F 52.0 °F 53% 30.11 in 10.0 mi South 8.1 mph - N/A   Mostly Cloudy
4:53 PM 69.1 °F 52.0 °F 54% 30.09 in 10.0 mi SSE 13.8 mph - N/A   Mostly Cloudy
5:53 PM 70.0 °F 53.1 °F 55% 30.09 in 10.0 mi SE 11.5 mph - N/A   Mostly Cloudy
6:53 PM 66.9 °F 52.0 °F 59% 30.08 in 10.0 mi SSE 10.4 mph - N/A   Scattered Clouds
7:53 PM 64.0 °F 52.0 °F 65% 30.08 in 10.0 mi SSE 6.9 mph - N/A   Mostly Cloudy
8:53 PM 63.0 °F 55.0 °F 75% 30.09 in 10.0 mi SE 5.8 mph - N/A   Mostly Cloudy
9:53 PM 61.0 °F 55.0 °F 81% 30.10 in 10.0 mi SE 4.6 mph - N/A   Scattered Clouds
10:53 PM 60.1 °F 54.0 °F 80% 30.10 in 10.0 mi SE 3.5 mph - N/A   Clear
11:53 PM 59.0 °F 55.0 °F 87% 30.09 in 10.0 mi SE 5.8 mph - N/A   Partly Cloudy